Tracking 32420 objects as of 8-Dec-2025
HD Live streaming from Space Station
objects crossing your sky now

STARLINK-31941

Track STARLINK-31941 now!
10-day predictions
STARLINK-31941 is classified as:


NORAD ID: 59866
Int'l Code: 2024-098J
Perigee: 489.7 km
Apogee: 490.7 km
Inclination: 43.0 °
Period: 94.3 minutes
Semi major axis: 6861 km
RCS: Unknown
Launch date: May 24, 2024
Source: United States (US)
Launch site: AIR FORCE EASTERN TEST RANGE (AFETR)
Your satellite tracking list
Your tracking list is empty




NASA's NSSDC Master Catalog

Two Line Element Set (TLE):
1 59866U 24098J   25341.92985309  .00000486  00000-0  27161-4 0  9996
2 59866  43.0044  58.4585 0000713 282.2233  77.8539 15.27584611 88015
Source of the keplerian elements: AFSPC